Regional Weather Roundup
Issued by NWS

Home | Current Version | Previous Version | Graphics & Text | Print | Product List | Glossary On
Versions: 1 2 3 4 5 6 7 8 9 10 11 12 13 14 15 16 17 18 19 20 21 22 23 24 25 26 27 28 29 30 31 32 33 34 35 36 37 38 39 40 41 42 43 44 45 46 47 48 49 50
000
ASUS45 KBOU 140010
RWRCO

WEATHER ROUNDUP FOR COLORADO
NATIONAL WEATHER SERVICE DENVER/BOULDER CO
600 PM MDT SUN JUL 13 2014

NOTE: "FAIR" INDICATES FEW OR NO CLOUDS BELOW 12000 FEET WITH NO
SIGNIFICANT WEATHER AND/OR OBSTRUCTIONS TO VISIBILITY.

COZ001>005-013-030-031-140100-
...NORTHWEST COLORADO...

CITY           SKY/WX    TMP DP  RH WIND       PRES   REMARKS
CRAIG          MOSUNNY   79  46  31 W5        30.24F
HAYDEN         MOSUNNY   82  37  20 N7        30.26F
MEEKER         MOSUNNY   88  37  16 N13       30.25F
MOUNT WERNER   NOT AVBL
STEAMBOAT SPGS MOSUNNY   83  42  23 NW8       30.29F
WALDEN         MOSUNNY   73  43  33 NE15      30.42S
$$

COZ006>008-011-140100-
...WEST CENTRAL VALLEYS...

CITY           SKY/WX    TMP DP  RH WIND       PRES   REMARKS
GRAND JUNCTION MOSUNNY   96  45  17 W7        30.06F
MONTROSE       MOSUNNY   93  41  16 N12       30.16F
EAGLE          MOSUNNY   88  43  20 CALM      30.26F
RIFLE          MOSUNNY   92  40  16 N10G17    30.15F
DELTA          MOSUNNY   95  43  16 E7        30.10F
NUCLA          MOSUNNY   90  41  18 CALM      30.20F
$$

COZ017>023-064>068-140100-
...SOUTHWEST COLORADO...

CITY           SKY/WX    TMP DP  RH WIND       PRES   REMARKS
DURANGO        CLOUDY    71  54  54 S7        30.24F
CORTEZ         MOSUNNY   91  45  20 W6        30.16F
PAGOSA SPRINGS CLOUDY    69  56  65 E3        30.35S
TELLURIDE      MOSUNNY   73  46  38 W10       30.45F
WOLF CREEK PAS NOT AVBL
$$

COZ009-010-012-014-032>034-037-058>063-140100-
...CENTRAL COLORADO...

CITY           SKY/WX    TMP DP  RH WIND       PRES   REMARKS
ASPEN          PTSUNNY   80  43  26 N5        30.34F
BUENA VISTA    PTSUNNY   72  47  40 SE10      30.40F
COPPER MTN     PTSUNNY   68  32  26 W10G26    30.72F
BERTHOUD PASS  FAIR      52  37  58 NE3       30.78S
COTTONWOOD PAS PTSUNNY   66  45  45 CALM      30.56S
GUNNISON       PTSUNNY   82  43  24 N7        30.33F
KREMMLING      SUNNY     82  36  18 NW6       30.33F
LEADVILLE      CLOUDY    67  36  31 N13       30.52F
MONARCH PASS   CLOUDY    54  41  62 W14       30.81F
SALIDA         PTSUNNY  N/A N/A N/A SE5       30.46S
SUNLIGHT       MOSUNNY   66  43  42 CALM      30.64F
WILKERSON PASS RAIN      54  48  82 CALM      30.70R
$$

COZ069>075-140100-
...SAN LUIS VALLEY/SANGRE DE CRISTO MOUNTAINS...

CITY           SKY/WX    TMP DP  RH WIND       PRES   REMARKS
ALAMOSA        PTSUNNY   76  49  38 W15       30.32S
LA VETA PASS   PTSUNNY   61  52  72 E15G24    30.58S
SAGUACHE       NOT AVBL
$$

COZ035-036-038>040-140100-
...NORTHERN COLORADO FRONT RANGE...

CITY           SKY/WX    TMP DP  RH WIND       PRES   REMARKS
DENVER INTL AP PTSUNNY   83  49  30 VRB5      30.23F
DMNS CITY PARK   N/A     83  52  33 NE8       30.21S
AURORA         PTSUNNY   78  57  47 E10       30.25S
FRONT RANGE AP NOT AVBL
ERIE MUNI ARPT PTSUNNY   84  49  29 CALM      30.21F
BOULDER MUN AP PTSUNNY   79  55  44 W5        30.22F
CENTENNIAL     CLOUDY    80  52  37 SE6       30.25S
BROOMFIELD     PTSUNNY   82  54  36 E6        30.25F
FORT COLLINS   MOSUNNY   79  57  47 NE12      30.21S
LONGMONT       MOSUNNY   86  53  32 NW5       30.22F
$$

COZ041-046-047-076>085-087-088-140100-
...PIKES PEAK/PALMER DIVIDE AND SOUTHERN FOOTHILLS...

CITY           SKY/WX    TMP DP  RH WIND       PRES   REMARKS
COLO. SPRINGS  PTSUNNY   76  57  51 SE9       30.30F
A. F. ACADEMY  PTSUNNY   73  57  57 S14       30.31F
ELLICOTT       PTSUNNY   75  56  51 MISG      30.28F
FALCON         PTSUNNY   72  56  57 S9        30.36F
FORT CARSON    PTSUNNY   77  59  54 S8        30.27F
LIMON          SUNNY     78  53  41 S8        30.24S
MONUMENT HILL  PTSUNNY   72  54  53 S14       30.34F
TRINIDAD       MOSUNNY   81  55  40 NE10      30.26S
$$

COZ042>045-048>051-090-091-140100-
...NORTHEAST COLORADO...

CITY           SKY/WX    TMP DP  RH WIND       PRES   REMARKS
GREELEY ARPT   NOT AVBL
AKRON          CLOUDY    68  61  78 E12       30.21F
BURLINGTON     MOSUNNY   80  59  48 E17G24    30.17S
WRAY             N/A     68  65  88 SW5       30.19F
STERLING       CLOUDY    73  64  73 CALM      30.15F
HOLYOKE        CLOUDY    73  63  68 SW6       30.17S
FORT MORGAN    CLOUDY    80  53  38 NE12      30.19F
$$

COZ086-089-092>099-140100-
...SOUTHEAST COLORADO...

CITY           SKY/WX    TMP DP  RH WIND       PRES   REMARKS
PUEBLO         MOSUNNY   81  59  47 SE10      30.19F
LA JUNTA       SUNNY     82  60  47 SE6       30.17F
LAMAR          SUNNY     83  60  45 S12       30.12F
SPRINGFIELD      N/A     81  58  45 SE12      30.18S
$$


USA.gov is the U.S. government's official web portal to all federal, state and local government web resources and services.